Location: Unspecified
(0.0000°N, 0.0000°E)
Time: 08:34:03
(UTC+00:00)

Transit 4A - Pass Details

Date: 05 October 2023
Orbit: 864 x 979 km, 66.8° (Epoch: 05 December)

Event Time Altitude Azimuth Distance (km) Brightness Sun altitude
Rises 20:21:21 0° 339° (NNW) 3,563 11.1 -38.1°
Enters shadow 20:22:51 - 339° (NNW) 3,000 10.7 -38.4°
Reaches altitude 10° 20:23:54 10° 339° (NNW) 2,605 - -38.7°
Maximum altitude 20:29:57 85° 250° (WSW) 905 - -40.2°
Drops below altitude 10° 20:35:51 10° 162° (SSE) 2,540 - -41.7°
Sets 20:38:18 0° 161° (SSE) 3,468 - -42.3°
